This is the latest recevied weather packets stored in our database for station/object PA3GJX-13. If no packets are shown the sender has not sent any weather packets the latest 1 day(s).
| Time | Temp. | Humidity | Pressure | Rain* | Wind** | Luminosity | Snow |
|---|---|---|---|---|---|---|---|
| 1777749344 | 28.33° C | 31% | 1028 hPa | - | - | - | - |
| 1777748144 | 28.33° C | 31% | 1028 hPa | - | - | - | - |
| 1777746944 | 28.89° C | 31% | 1028 hPa | - | - | - | - |
| 1777745744 | 29.44° C | 31% | 1027.8 hPa | - | - | - | - |
| 1777744544 | 29.44° C | 31% | 1027.8 hPa | - | - | - | - |
| 1777743344 | 29.44° C | 31% | 1028 hPa | - | - | - | - |
| 1777742144 | 30° C | 31% | 1028.1 hPa | - | - | - | - |
| 1777740944 | 30° C | 32% | 1028.3 hPa | - | - | - | - |
| 1777739743 | 30° C | 31% | 1028.5 hPa | - | - | - | - |
| 1777738543 | 29.44° C | 31% | 1028.6 hPa | - | - | - | - |
| 1777737343 | 29.44° C | 31% | 1028.8 hPa | - | - | - | - |
| 1777736144 | 29.44° C | 32% | 1029 hPa | - | - | - | - |
| 1777734943 | 28.89° C | 31% | 1029 hPa | - | - | - | - |
| 1777733743 | 28.89° C | 31% | 1029.1 hPa | - | - | - | - |
| 1777732543 | 28.89° C | 31% | 1029.5 hPa | - | - | - | - |
| 1777731343 | 28.89° C | 31% | 1029.7 hPa | - | - | - | - |
| 1777730143 | 28.33° C | 32% | 1029.7 hPa | - | - | - | - |
| 1777728944 | 28.33° C | 31% | 1029.9 hPa | - | - | - | - |
| 1777726543 | 27.78° C | 31% | 1030.3 hPa | - | - | - | - |
| 1777725343 | 27.78° C | 30% | 1030.4 hPa | - | - | - | - |
| 1777724143 | 26.67° C | 31% | 1030.5 hPa | - | - | - | - |
| 1777722943 | 26.67° C | 31% | 1030.7 hPa | - | - | - | - |
| 1777721743 | 26.11° C | 31% | 1030.9 hPa | - | - | - | - |
| 1777720543 | 26.11° C | 30% | 1031 hPa | - | - | - | - |
| 1777719343 | 25° C | 31% | 1031.2 hPa | - | - | - | - |
* Rain since midnight (hover to see other rain measurements)
** Current wind speed in m/s (hover to see current wind gust speed)